| time (UTC) | temp F | wind direction | speed knots | gust knots | rain 1hr in | rain 24hr in | rain mn in | humidity % | barometer mb |
| 20260508213635 | 76 | 27 | 1.7 | 9.6 | 0.00 | 0.00 | 0.00 | 22 | 1015.9 |
| 20260508213140 | 76 | 27 | 3.5 | 10.4 | 0.00 | 0.00 | 0.00 | 22 | 1016.0 |
| 20260508212624 | 76 | 27 | 7.0 | 11.3 | 0.00 | 0.00 | 0.00 | 21 | 1015.9 |
| 20260508212128 | 75 | 27 | 1.7 | 8.7 | 0.00 | 0.00 | 0.00 | 22 | 1016.0 |
| 20260508211632 | 75 | 27 | 7.0 | 8.7 | 0.00 | 0.00 | 0.00 | 22 | 1016.1 |
| 20260508211137 | 75 | 27 | 2.6 | 8.7 | 0.00 | 0.00 | 0.00 | 22 | 1016.1 |
| 20260508210621 | 75 | 27 | 3.5 | 11.3 | 0.00 | 0.00 | 0.00 | 22 | 1016.1 |
| 20260508210126 | 75 | 27 | 7.8 | 11.3 | 0.00 | 0.00 | 0.00 | 22 | 1016.1 |
| 20260508205630 | 75 | 27 | 7.8 | 11.3 | 0.00 | 0.00 | 0.00 | 22 | 1016.3 |
| 20260508205154 | 74 | 27 | 4.3 | 13.9 | 0.00 | 0.00 | 0.00 | 21 | 1016.3 |
| 20260508204638 | 74 | 27 | 7.8 | 13.9 | 0.00 | 0.00 | 0.00 | 21 | 1016.4 |
| 20260508204126 | 74 | 27 | 7.8 | 13.0 | 0.00 | 0.00 | 0.00 | 21 | 1016.3 |
| 20260508203630 | 74 | 27 | 3.5 | 10.4 | 0.00 | 0.00 | 0.00 | 24 | 1016.4 |
| 20260508203135 | 73 | 27 | 4.3 | 12.2 | 0.00 | 0.00 | 0.00 | 24 | 1016.5 |
| 20260508202639 | 74 | 27 | 5.2 | 12.2 | 0.00 | 0.00 | 0.00 | 24 | 1016.5 |
| 20260508202123 | 74 | 27 | 4.3 | 13.0 | 0.00 | 0.00 | 0.00 | 23 | 1016.5 |
| 20260508201628 | 73 | 27 | 4.3 | 13.0 | 0.00 | 0.00 | 0.00 | 23 | 1016.5 |
| 20260508201132 | 74 | 27 | 5.2 | 14.8 | 0.00 | 0.00 | 0.00 | 22 | 1016.6 |
| 20260508200636 | 74 | 27 | 7.8 | 14.8 | 0.00 | 0.00 | 0.00 | 23 | 1016.6 |
| 20260508200121 | 74 | 27 | 7.0 | 13.9 | 0.00 | 0.00 | 0.00 | 24 | 1016.6 |
| 20260508195625 | 73 | 27 | 2.6 | 13.9 | 0.00 | 0.00 | 0.00 | 23 | 1016.6 |
| 20260508195130 | 73 | 27 | 5.2 | 10.4 | 0.00 | 0.00 | 0.00 | 24 | 1016.6 |
| 20260508194638 | 73 | 27 | 6.1 | 10.4 | 0.00 | 0.00 | 0.00 | 23 | 1016.5 |
| 20260508194122 | 73 | 27 | 3.5 | 9.6 | 0.00 | 0.00 | 0.00 | 23 | 1016.6 |
| 20260508193627 | 73 | 27 | 6.1 | 13.0 | 0.00 | 0.00 | 0.00 | 24 | 1016.7 |
| 20260508193131 | 73 | 27 | 5.2 | 13.0 | 0.00 | 0.00 | 0.00 | 24 | 1016.7 |
| 20260508192635 | 72 | 27 | 4.3 | 13.0 | 0.00 | 0.00 | 0.00 | 26 | 1016.8 |
| 20260508192120 | 72 | 27 | 5.2 | 13.9 | 0.00 | 0.00 | 0.00 | 25 | 1016.8 |
| 20260508191624 | 73 | 27 | 8.7 | 13.9 | 0.00 | 0.00 | 0.00 | 25 | 1016.8 |
| 20260508191129 | 72 | 27 | 4.3 | 11.3 | 0.00 | 0.00 | 0.00 | 26 | 1016.8 |
| 20260508190633 | 73 | 27 | 7.0 | 11.3 | 0.00 | 0.00 | 0.00 | 25 | 1016.9 |
| 20260508190138 | 73 | 27 | 5.2 | 10.4 | 0.00 | 0.00 | 0.00 | 24 | 1016.9 |
| 20260508185625 | 72 | 27 | 5.2 | 11.3 | 0.00 | 0.00 | 0.00 | 26 | 1017.0 |
| 20260508185130 | 71 | 27 | 6.1 | 11.3 | 0.00 | 0.00 | 0.00 | 25 | 1017.1 |
| 20260508184634 | 72 | 27 | 7.0 | 10.4 | 0.00 | 0.00 | 0.00 | 27 | 1017.1 |
| 20260508184159 | 72 | 27 | 4.3 | 11.3 | 0.00 | 0.00 | 0.00 | 26 | 1017.1 |
| 20260508183622 | 73 | 27 | 6.1 | 11.3 | 0.00 | 0.00 | 0.00 | 27 | 1017.2 |
| 20260508183126 | 73 | 27 | 5.2 | 9.6 | 0.00 | 0.00 | 0.00 | 29 | 1017.1 |
| 20260508182630 | 73 | 27 | 5.2 | 8.7 | 0.00 | 0.00 | 0.00 | 31 | 1017.1 |
| 20260508182135 | 73 | 27 | 4.3 | 7.8 | 0.00 | 0.00 | 0.00 | 31 | 1017.1 |
| 20260508181639 | 72 | 27 | 3.5 | 7.8 | 0.00 | 0.00 | 0.00 | 30 | 1017.2 |
| 20260508181124 | 72 | 27 | 3.5 | 11.3 | 0.00 | 0.00 | 0.00 | 31 | 1017.2 |
| 20260508180628 | 72 | 27 | 4.3 | 11.3 | 0.00 | 0.00 | 0.00 | 31 | 1017.3 |
| 20260508180133 | 72 | 27 | 5.2 | 8.7 | 0.00 | 0.00 | 0.00 | 29 | 1017.3 |
| 20260508175620 | 72 | 27 | 6.1 | 8.7 | 0.00 | 0.00 | 0.00 | 30 | 1017.3 |
| 20260508175125 | 72 | 27 | 3.5 | 8.7 | 0.00 | 0.00 | 0.00 | 30 | 1017.3 |
| 20260508174629 | 72 | 27 | 5.2 | 8.7 | 0.00 | 0.00 | 0.00 | 30 | 1017.4 |
| 20260508174134 | 72 | 27 | 3.5 | 9.6 | 0.00 | 0.00 | 0.00 | 32 | 1017.4 |
| 20260508173638 | 72 | 27 | 6.1 | 9.6 | 0.00 | 0.00 | 0.00 | 31 | 1017.3 |
| 20260508173122 | 72 | 27 | 3.5 | 9.6 | 0.00 | 0.00 | 0.00 | 31 | 1017.5 |
| 20260508172626 | 72 | 27 | 3.5 | 7.8 | 0.00 | 0.00 | 0.00 | 32 | 1017.5 |
| 20260508172151 | 72 | 27 | 2.6 | 7.0 | 0.00 | 0.00 | 0.00 | 33 | 1017.3 |
| 20260508171654 | 71 | 27 | 2.6 | 7.8 | 0.00 | 0.00 | 0.00 | 33 | 1017.3 |
| 20260508171158 | 72 | 27 | 5.2 | 7.8 | 0.00 | 0.00 | 0.00 | 33 | 1017.4 |
| 20260508170621 | 72 | 27 | 0.9 | 5.2 | 0.00 | 0.00 | 0.00 | 31 | 1017.4 |
| 20260508170125 | 72 | 27 | 3.5 | 6.1 | 0.00 | 0.00 | 0.00 | 31 | 1017.3 |
| 20260508165629 | 72 | 27 | 2.6 | 4.3 | 0.00 | 0.00 | 0.00 | 31 | 1017.3 |
| 20260508165138 | 71 | 27 | 2.6 | 4.3 | 0.00 | 0.00 | 0.00 | 32 | 1017.3 |
| 20260508164642 | 71 | 27 | 1.7 | 3.5 | 0.00 | 0.00 | 0.00 | 32 | 1017.3 |
| 20260508164125 | 71 | 27 | 2.6 | 7.0 | 0.00 | 0.00 | 0.00 | 34 | 1017.2 |
| 20260508163630 | 70 | 27 | 2.6 | 7.0 | 0.00 | 0.00 | 0.00 | 35 | 1017.2 |
| 20260508163134 | 70 | 27 | 2.6 | 4.3 | 0.00 | 0.00 | 0.00 | 35 | 1017.2 |
| 20260508162638 | 69 | 27 | 2.6 | 4.3 | 0.00 | 0.00 | 0.00 | 35 | 1017.2 |
| 20260508162122 | 68 | 27 | 2.6 | 4.3 | 0.00 | 0.00 | 0.00 | 36 | 1017.2 |
| 20260508161627 | 68 | 27 | 0.9 | 3.5 | 0.00 | 0.00 | 0.00 | 37 | 1017.3 |
| 20260508161130 | 68 | 27 | 0.9 | 4.3 | 0.00 | 0.00 | 0.00 | 36 | 1017.3 |
| 20260508160636 | 67 | 27 | 2.6 | 4.3 | 0.00 | 0.00 | 0.00 | 38 | 1017.3 |
| 20260508160139 | 67 | 27 | 0.9 | 4.3 | 0.00 | 0.00 | 0.00 | 39 | 1017.3 |
| 20260508155628 | 67 | 27 | 1.7 | 5.2 | 0.00 | 0.00 | 0.00 | 39 | 1017.3 |
| 20260508155132 | 67 | 27 | 2.6 | 5.2 | 0.00 | 0.00 | 0.00 | 39 | 1017.3 |
| 20260508154637 | 66 | 27 | 2.6 | 4.3 | 0.00 | 0.00 | 0.00 | 39 | 1017.3 |
| 20260508154120 | 66 | 27 | 1.7 | 3.5 | 0.00 | 0.00 | 0.00 | 40 | 1017.2 |
| 20260508153626 | 66 | 27 | 1.7 | 4.3 | 0.00 | 0.00 | 0.00 | 41 | 1017.1 |
| 20260508153129 | 65 | 27 | 1.7 | 4.3 | 0.00 | 0.00 | 0.00 | 41 | 1017.2 |
| 20260508152654 | 65 | 27 | 2.6 | 4.3 | 0.00 | 0.00 | 0.00 | 42 | 1017.2 |
| 20260508152137 | 65 | 27 | 0.9 | 4.3 | 0.00 | 0.00 | 0.00 | 42 | 1017.2 |
| 20260508151622 | 65 | 27 | 2.6 | 4.3 | 0.00 | 0.00 | 0.00 | 42 | 1017.2 |
| 20260508151126 | 64 | 27 | 0.9 | 3.5 | 0.00 | 0.00 | 0.00 | 43 | 1017.0 |
| 20260508150631 | 64 | 27 | 1.7 | 3.5 | 0.00 | 0.00 | 0.00 | 44 | 1017.0 |
| 20260508150154 | 64 | 27 | 2.6 | 3.5 | 0.00 | 0.00 | 0.00 | 44 | 1017.0 |
| 20260508145659 | 63 | 27 | 1.7 | 2.6 | 0.00 | 0.00 | 0.00 | 44 | 1016.9 |
| 20260508145125 | 63 | 27 | 0.9 | 1.7 | 0.00 | 0.00 | 0.00 | 44 | 1016.8 |
| 20260508144630 | 62 | 27 | 0.9 | 2.6 | 0.00 | 0.00 | 0.00 | 46 | 1016.8 |
| 20260508144134 | 62 | 27 | 0.0 | 2.6 | 0.00 | 0.00 | 0.00 | 46 | 1016.7 |
| 20260508143639 | 61 | 27 | 0.9 | 2.6 | 0.00 | 0.00 | 0.00 | 46 | 1016.8 |
| 20260508143122 | 61 | 27 | 0.9 | 1.7 | 0.00 | 0.00 | 0.00 | 47 | 1016.7 |
| 20260508142627 | 60 | 27 | 0.9 | 1.7 | 0.00 | 0.00 | 0.00 | 47 | 1016.6 |
| 20260508142131 | 59 | 27 | 0.9 | 1.7 | 0.00 | 0.00 | 0.00 | 49 | 1016.7 |
| 20260508141636 | 58 | 27 | 0.9 | 1.7 | 0.00 | 0.00 | 0.00 | 50 | 1016.7 |
| 20260508141200 | 58 | 27 | 0.0 | 0.9 | 0.00 | 0.00 | 0.00 | 50 | 1016.6 |
| 20260508140624 | 57 | 27 | 0.0 | 1.7 | 0.00 | 0.00 | 0.00 | 50 | 1016.5 |
| 20260508140128 | 57 | 27 | 0.9 | 2.6 | 0.00 | 0.00 | 0.00 | 51 | 1016.5 |
| 20260508135633 | 56 | 27 | 1.7 | 2.6 | 0.00 | 0.00 | 0.00 | 53 | 1016.6 |
| 20260508135120 | 55 | 27 | 0.0 | 2.6 | 0.00 | 0.00 | 0.00 | 52 | 1016.4 |
| 20260508134625 | 55 | 27 | 0.9 | 1.7 | 0.00 | 0.00 | 0.00 | 52 | 1016.4 |
| 20260508134129 | 54 | 27 | 0.0 | 0.9 | 0.00 | 0.00 | 0.00 | 54 | 1016.3 |
| 20260508133634 | 54 | 27 | 0.0 | 1.7 | 0.00 | 0.00 | 0.00 | 53 | 1016.3 |
| 20260508133158 | 54 | 27 | 0.9 | 1.7 | 0.00 | 0.00 | 0.00 | 54 | 1016.2 |
| 20260508132622 | 54 | 27 | 0.0 | 1.7 | 0.00 | 0.00 | 0.00 | 53 | 1016.2 |
| 20260508132125 | 54 | 27 | 0.9 | 1.7 | 0.00 | 0.00 | 0.00 | 53 | 1016.2 |
| 20260508131631 | 54 | 27 | 0.0 | 1.7 | 0.00 | 0.00 | 0.00 | 53 | 1016.1 |
| 20260508131135 | 54 | 27 | 0.9 | 1.7 | 0.00 | 0.00 | 0.00 | 54 | 1016.1 |
| 20260508130700 | 54 | 27 | 0.0 | 1.7 | 0.00 | 0.00 | 0.00 | 53 | 1016.0 |
| 20260508130137 | 54 | 27 | 0.9 | 1.7 | 0.00 | 0.00 | 0.00 | 53 | 1015.9 |
| 20260508125621 | 54 | 27 | 0.0 | 0.9 | 0.00 | 0.00 | 0.00 | 53 | 1015.9 |
| 20260508125130 | 54 | 27 | 0.0 | 1.7 | 0.00 | 0.00 | 0.00 | 53 | 1015.8 |
| 20260508124634 | 54 | 27 | 0.9 | 1.7 | 0.00 | 0.00 | 0.00 | 53 | 1015.8 |
| 20260508124139 | 54 | 27 | 0.0 | 1.7 | 0.00 | 0.00 | 0.00 | 53 | 1015.8 |
| 20260508123642 | 54 | 27 | 0.9 | 2.6 | 0.00 | 0.00 | 0.00 | 54 | 1015.7 |
| 20260508123126 | 54 | 27 | 0.9 | 2.6 | 0.00 | 0.00 | 0.00 | 55 | 1015.7 |
| 20260508122630 | 54 | 27 | 1.7 | 2.6 | 0.00 | 0.00 | 0.00 | 56 | 1015.5 |
| 20260508122155 | 54 | 27 | 0.9 | 2.6 | 0.00 | 0.00 | 0.00 | 57 | 1015.5 |
| 20260508121638 | 54 | 27 | 0.9 | 1.7 | 0.00 | 0.00 | 0.00 | 58 | 1015.5 |
| 20260508121142 | 54 | 27 | 0.9 | 3.5 | 0.00 | 0.00 | 0.00 | 57 | 1015.5 |
| 20260508120625 | 54 | 27 | 2.6 | 3.5 | 0.00 | 0.00 | 0.00 | 57 | 1015.3 |
| 20260508120130 | 54 | 27 | 1.7 | 2.6 | 0.00 | 0.00 | 0.00 | 57 | 1015.4 |
| 20260508115634 | 54 | 27 | 1.7 | 3.5 | 0.00 | 0.00 | 0.00 | 57 | 1015.2 |
| 20260508115138 | 54 | 27 | 0.0 | 4.3 | 0.00 | 0.00 | 0.00 | 55 | 1015.2 |
| 20260508114627 | 54 | 27 | 2.6 | 4.3 | 0.00 | 0.00 | 0.00 | 55 | 1015.1 |
| 20260508114130 | 54 | 27 | 0.9 | 3.5 | 0.00 | 0.00 | 0.00 | 54 | 1015.2 |
| 20260508113635 | 54 | 27 | 0.9 | 1.7 | 0.00 | 0.00 | 0.00 | 54 | 1015.1 |
| 20260508113138 | 54 | 27 | 0.0 | 1.7 | 0.00 | 0.00 | 0.00 | 54 | 1015.1 |
| 20260508112623 | 54 | 27 | 0.0 | 2.6 | 0.00 | 0.00 | 0.00 | 54 | 1015.0 |
| 20260508112147 | 54 | 27 | 0.9 | 4.3 | 0.00 | 0.00 | 0.00 | 55 | 1015.0 |
| 20260508111630 | 54 | 27 | 0.9 | 4.3 | 0.00 | 0.00 | 0.00 | 56 | 1015.0 |
| 20260508111134 | 54 | 27 | 0.0 | 2.6 | 0.00 | 0.00 | 0.00 | 55 | 1015.0 |
| 20260508110639 | 54 | 27 | 0.9 | 4.3 | 0.00 | 0.00 | 0.00 | 55 | 1015.0 |
| 20260508110122 | 54 | 27 | 1.7 | 4.3 | 0.00 | 0.00 | 0.00 | 55 | 1015.1 |
| 20260508105647 | 55 | 27 | 1.7 | 3.5 | 0.00 | 0.00 | 0.00 | 55 | 1015.0 |
| 20260508105130 | 54 | 27 | 1.7 | 2.6 | 0.00 | 0.00 | 0.00 | 55 | 1015.0 |
| 20260508104635 | 55 | 27 | 0.9 | 3.5 | 0.00 | 0.00 | 0.00 | 55 | 1014.9 |
| 20260508104143 | 55 | 27 | 1.7 | 3.5 | 0.00 | 0.00 | 0.00 | 55 | 1014.9 |
| 20260508103626 | 55 | 27 | 1.7 | 2.6 | 0.00 | 0.00 | 0.00 | 55 | 1015.0 |
| 20260508103129 | 55 | 27 | 1.7 | 2.6 | 0.00 | 0.00 | 0.00 | 55 | 1015.0 |
| 20260508102634 | 55 | 27 | 1.7 | 3.5 | 0.00 | 0.00 | 0.00 | 55 | 1015.0 |
| 20260508102138 | 55 | 27 | 1.7 | 3.5 | 0.00 | 0.00 | 0.00 | 54 | 1015.0 |
| 20260508101623 | 55 | 27 | 2.6 | 3.5 | 0.00 | 0.00 | 0.00 | 53 | 1015.0 |
| 20260508101127 | 55 | 27 | 0.9 | 2.6 | 0.00 | 0.00 | 0.00 | 54 | 1015.0 |
| 20260508100632 | 55 | 27 | 1.7 | 2.6 | 0.00 | 0.00 | 0.00 | 55 | 1015.0 |
| 20260508100136 | 55 | 27 | 0.9 | 2.6 | 0.00 | 0.00 | 0.00 | 54 | 1014.9 |
| 20260508095700 | 55 | 27 | 0.9 | 2.6 | 0.00 | 0.00 | 0.00 | 55 | 1014.9 |
| 20260508095123 | 55 | 27 | 1.7 | 2.6 | 0.00 | 0.00 | 0.00 | 55 | 1014.9 |
| 20260508094628 | 55 | 27 | 1.7 | 3.5 | 0.00 | 0.00 | 0.00 | 56 | 1014.9 |
| 20260508094136 | 55 | 27 | 1.7 | 3.5 | 0.00 | 0.00 | 0.00 | 56 | 1015.0 |
| 20260508093620 | 55 | 27 | 1.7 | 2.6 | 0.00 | 0.00 | 0.00 | 55 | 1015.0 |
| 20260508093124 | 55 | 27 | 1.7 | 2.6 | 0.00 | 0.00 | 0.00 | 55 | 1014.9 |
| 20260508092629 | 55 | 27 | 0.9 | 4.3 | 0.00 | 0.00 | 0.00 | 55 | 1014.8 |
| 20260508092153 | 55 | 27 | 0.9 | 5.2 | 0.00 | 0.00 | 0.00 | 54 | 1014.8 |
| 20260508091637 | 56 | 27 | 2.6 | 5.2 | 0.00 | 0.00 | 0.00 | 54 | 1014.7 |
| 20260508091121 | 56 | 27 | 0.0 | 2.6 | 0.00 | 0.00 | 0.00 | 53 | 1014.6 |
| 20260508090626 | 57 | 27 | 0.9 | 2.6 | 0.00 | 0.00 | 0.00 | 53 | 1014.6 |
| 20260508090130 | 56 | 27 | 1.7 | 2.6 | 0.00 | 0.00 | 0.00 | 53 | 1014.6 |
| 20260508085634 | 56 | 27 | 0.0 | 0.9 | 0.00 | 0.00 | 0.00 | 53 | 1014.5 |
| 20260508085138 | 57 | 27 | 0.0 | 0.9 | 0.00 | 0.00 | 0.00 | 54 | 1014.6 |
| 20260508084643 | 57 | 27 | 0.0 | 2.6 | 0.00 | 0.00 | 0.00 | 54 | 1014.6 |
| 20260508084130 | 57 | 27 | 0.9 | 2.6 | 0.00 | 0.00 | 0.00 | 53 | 1014.6 |
| 20260508083635 | 57 | 27 | 0.9 | 1.7 | 0.00 | 0.00 | 0.00 | 54 | 1014.7 |
| 20260508083139 | 56 | 27 | 0.9 | 2.6 | 0.00 | 0.00 | 0.00 | 54 | 1014.6 |
| 20260508082623 | 57 | 27 | 1.7 | 3.5 | 0.00 | 0.00 | 0.00 | 53 | 1014.7 |
| 20260508082127 | 57 | 27 | 0.9 | 3.5 | 0.00 | 0.00 | 0.00 | 53 | 1014.8 |
| 20260508081632 | 57 | 27 | 0.0 | 2.6 | 0.00 | 0.00 | 0.00 | 53 | 1014.6 |
| 20260508081136 | 57 | 27 | 0.9 | 1.7 | 0.00 | 0.00 | 0.00 | 53 | 1014.6 |
| 20260508080621 | 57 | 27 | 0.9 | 2.6 | 0.00 | 0.00 | 0.00 | 54 | 1014.6 |
| 20260508080125 | 58 | 27 | 0.9 | 2.6 | 0.00 | 0.00 | 0.00 | 53 | 1014.6 |
| 20260508075630 | 58 | 27 | 1.7 | 3.5 | 0.00 | 0.00 | 0.00 | 53 | 1014.6 |
| 20260508075134 | 58 | 27 | 1.7 | 3.5 | 0.00 | 0.00 | 0.00 | 52 | 1014.8 |
| 20260508074642 | 58 | 27 | 1.7 | 3.5 | 0.00 | 0.00 | 0.00 | 51 | 1014.8 |
| 20260508074125 | 59 | 27 | 2.6 | 3.5 | 0.00 | 0.00 | 0.00 | 51 | 1014.6 |
| 20260508073630 | 59 | 27 | 1.7 | 2.6 | 0.00 | 0.00 | 0.00 | 51 | 1014.7 |
| 20260508073134 | 58 | 27 | 1.7 | 2.6 | 0.00 | 0.00 | 0.00 | 52 | 1014.7 |
| 20260508072639 | 58 | 27 | 1.7 | 2.6 | 0.00 | 0.00 | 0.00 | 50 | 1014.6 |
| 20260508072122 | 59 | 27 | 1.7 | 2.6 | 0.00 | 0.00 | 0.00 | 50 | 1014.6 |
| 20260508071628 | 59 | 27 | 1.7 | 2.6 | 0.00 | 0.00 | 0.00 | 50 | 1014.6 |
| 20260508071131 | 59 | 27 | 0.9 | 2.6 | 0.00 | 0.00 | 0.00 | 50 | 1014.7 |
| 20260508070635 | 59 | 27 | 0.9 | 1.7 | 0.00 | 0.00 | 0.00 | 48 | 1014.6 |
| 20260508070159 | 59 | 27 | 0.9 | 1.7 | 0.00 | 0.00 | 0.00 | 48 | 1014.6 |
| 20260508065623 | 59 | 27 | 0.0 | 0.9 | 0.00 | 0.00 | 0.00 | 48 | 1014.6 |
| 20260508065127 | 60 | 27 | 0.0 | 1.7 | 0.00 | 0.00 | 0.00 | 48 | 1014.5 |
| 20260508064636 | 60 | 27 | 0.9 | 1.7 | 0.00 | 0.00 | 0.00 | 48 | 1014.5 |
| 20260508064140 | 60 | 27 | 0.0 | 1.7 | 0.00 | 0.00 | 0.00 | 48 | 1014.4 |
| 20260508063624 | 60 | 27 | 0.0 | 1.7 | 0.00 | 0.00 | 0.00 | 48 | 1014.3 |
| 20260508063149 | 60 | 27 | 0.9 | 1.7 | 0.00 | 0.00 | 0.00 | 49 | 1014.3 |
| 20260508062632 | 60 | 27 | 0.9 | 1.7 | 0.00 | 0.00 | 0.00 | 48 | 1014.3 |
| 20260508062156 | 60 | 27 | 0.9 | 2.6 | 0.00 | 0.00 | 0.00 | 49 | 1014.3 |
| 20260508061620 | 60 | 27 | 1.7 | 3.5 | 0.00 | 0.00 | 0.00 | 48 | 1014.3 |
| 20260508061123 | 61 | 27 | 2.6 | 3.5 | 0.00 | 0.00 | 0.00 | 47 | 1014.4 |
| 20260508060628 | 61 | 27 | 1.7 | 3.5 | 0.00 | 0.00 | 0.00 | 45 | 1014.4 |
| 20260508060132 | 61 | 27 | 0.0 | 0.9 | 0.00 | 0.00 | 0.00 | 44 | 1014.3 |
| 20260508055638 | 62 | 27 | 0.0 | 2.6 | 0.00 | 0.00 | 0.00 | 43 | 1014.2 |
| 20260508055141 | 62 | 27 | 1.7 | 5.2 | 0.00 | 0.00 | 0.00 | 42 | 1014.2 |
| 20260508054625 | 62 | 27 | 3.5 | 5.2 | 0.00 | 0.00 | 0.00 | 42 | 1014.2 |
| 20260508054133 | 63 | 27 | 1.7 | 3.5 | 0.00 | 0.00 | 0.00 | 43 | 1014.1 |
| 20260508053638 | 63 | 27 | 0.9 | 2.6 | 0.00 | 0.00 | 0.00 | 41 | 1013.9 |
| 20260508053121 | 63 | 27 | 0.9 | 3.5 | 0.00 | 0.00 | 0.00 | 39 | 1014.0 |
| 20260508052626 | 64 | 27 | 1.7 | 3.5 | 0.00 | 0.00 | 0.00 | 38 | 1014.0 |
| 20260508052130 | 64 | 27 | 1.7 | 3.5 | 0.00 | 0.00 | 0.00 | 37 | 1014.0 |
| 20260508051635 | 65 | 27 | 1.7 | 3.5 | 0.00 | 0.00 | 0.00 | 38 | 1013.9 |
| 20260508051139 | 65 | 27 | 2.6 | 3.5 | 0.00 | 0.00 | 0.00 | 37 | 1013.9 |
| 20260508050624 | 65 | 27 | 0.0 | 2.6 | 0.00 | 0.00 | 0.00 | 35 | 1013.9 |
| 20260508050127 | 66 | 27 | 0.9 | 2.6 | 0.00 | 0.00 | 0.00 | 35 | 1013.8 |
| 20260508045633 | 66 | 27 | 0.9 | 1.7 | 0.00 | 0.00 | 0.00 | 34 | 1013.8 |
| 20260508045120 | 66 | 27 | 0.0 | 0.9 | 0.00 | 0.00 | 0.00 | 35 | 1013.8 |
| 20260508044625 | 66 | 27 | 0.0 | 3.5 | 0.00 | 0.00 | 0.00 | 35 | 1013.8 |
| 20260508044149 | 66 | 27 | 1.7 | 3.5 | 0.00 | 0.00 | 0.00 | 34 | 1013.8 |
| 20260508043633 | 66 | 27 | 2.6 | 4.3 | 0.00 | 0.00 | 0.00 | 34 | 1013.8 |
| 20260508043137 | 67 | 27 | 3.5 | 4.3 | 0.00 | 0.00 | 0.00 | 34 | 1013.8 |
| 20260508042621 | 67 | 27 | 2.6 | 3.5 | 0.00 | 0.00 | 0.00 | 34 | 1013.8 |
| 20260508042125 | 67 | 27 | 0.9 | 2.6 | 0.00 | 0.00 | 0.00 | 33 | 1013.8 |
| 20260508041630 | 67 | 27 | 1.7 | 3.5 | 0.00 | 0.00 | 0.00 | 33 | 1013.8 |
| 20260508041134 | 67 | 27 | 1.7 | 3.5 | 0.00 | 0.00 | 0.00 | 33 | 1013.7 |
| 20260508040639 | 67 | 27 | 1.7 | 3.5 | 0.00 | 0.00 | 0.00 | 34 | 1013.8 |
| 20260508040143 | 67 | 27 | 1.7 | 4.3 | 0.00 | 0.00 | 0.00 | 34 | 1013.7 |
| 20260508035627 | 67 | 27 | 2.6 | 4.3 | 0.00 | 0.00 | 0.00 | 33 | 1013.8 |
| 20260508035131 | 67 | 27 | 1.7 | 5.2 | 0.00 | 0.00 | 0.00 | 34 | 1013.7 |
| 20260508034640 | 67 | 27 | 3.5 | 5.2 | 0.00 | 0.00 | 0.00 | 34 | 1013.6 |
| 20260508034123 | 67 | 27 | 2.6 | 4.3 | 0.00 | 0.00 | 0.00 | 34 | 1013.5 |
| 20260508033648 | 67 | 27 | 1.7 | 2.6 | 0.00 | 0.00 | 0.00 | 34 | 1013.5 |
| 20260508033151 | 67 | 27 | 0.9 | 2.6 | 0.00 | 0.00 | 0.00 | 35 | 1013.4 |
| 20260508032655 | 68 | 27 | 0.9 | 2.6 | 0.00 | 0.00 | 0.00 | 34 | 1013.5 |
| 20260508032138 | 68 | 27 | 1.7 | 3.5 | 0.00 | 0.00 | 0.00 | 35 | 1013.4 |
| 20260508031642 | 69 | 27 | 1.7 | 4.3 | 0.00 | 0.00 | 0.00 | 34 | 1013.4 |
| 20260508031146 | 69 | 27 | 2.6 | 3.5 | 0.00 | 0.00 | 0.00 | 33 | 1013.3 |
| 20260508030649 | 69 | 27 | 1.7 | 2.6 | 0.00 | 0.00 | 0.00 | 34 | 1013.3 |
| 20260508030152 | 69 | 27 | 1.7 | 2.6 | 0.00 | 0.00 | 0.00 | 34 | 1013.2 |
| 20260508025636 | 70 | 27 | 1.7 | 2.6 | 0.00 | 0.00 | 0.00 | 33 | 1013.2 |
| 20260508025120 | 70 | 27 | 1.7 | 2.6 | 0.00 | 0.00 | 0.00 | 33 | 1013.2 |
| 20260508024645 | 70 | 27 | 1.7 | 2.6 | 0.00 | 0.00 | 0.00 | 32 | 1013.1 |
| 20260508024127 | 70 | 27 | 0.9 | 2.6 | 0.00 | 0.00 | 0.00 | 30 | 1013.2 |
| 20260508023652 | 70 | 27 | 0.9 | 3.5 | 0.00 | 0.00 | 0.00 | 29 | 1013.2 |
| 20260508023134 | 71 | 27 | 2.6 | 3.5 | 0.00 | 0.00 | 0.00 | 29 | 1013.2 |
| 20260508022640 | 71 | 27 | 1.7 | 3.5 | 0.00 | 0.00 | 0.00 | 29 | 1013.1 |
| 20260508022123 | 71 | 27 | 2.6 | 4.3 | 0.00 | 0.00 | 0.00 | 28 | 1013.0 |
| 20260508021632 | 72 | 27 | 2.6 | 4.3 | 0.00 | 0.00 | 0.00 | 29 | 1013.0 |
| 20260508021156 | 72 | 27 | 2.6 | 3.5 | 0.00 | 0.00 | 0.00 | 28 | 1013.0 |
| 20260508020640 | 73 | 27 | 0.9 | 3.5 | 0.00 | 0.00 | 0.00 | 28 | 1013.0 |
| 20260508020123 | 73 | 27 | 2.6 | 3.5 | 0.00 | 0.00 | 0.00 | 27 | 1013.0 |
| 20260508015628 | 74 | 27 | 0.9 | 2.6 | 0.00 | 0.00 | 0.00 | 26 | 1013.0 |
| 20260508015133 | 74 | 27 | 0.0 | 4.3 | 0.00 | 0.00 | 0.00 | 27 | 1013.0 |
| 20260508014637 | 74 | 27 | 0.9 | 4.3 | 0.00 | 0.00 | 0.00 | 27 | 1013.0 |
| 20260508014141 | 74 | 27 | 2.6 | 5.2 | 0.00 | 0.00 | 0.00 | 26 | 1013.0 |
| 20260508013625 | 74 | 27 | 2.6 | 5.2 | 0.00 | 0.00 | 0.00 | 26 | 1013.0 |
| 20260508013129 | 75 | 27 | 1.7 | 5.2 | 0.00 | 0.00 | 0.00 | 25 | 1013.0 |
| 20260508012634 | 75 | 27 | 1.7 | 5.2 | 0.00 | 0.00 | 0.00 | 25 | 1013.0 |
| 20260508012158 | 75 | 27 | 2.6 | 7.0 | 0.00 | 0.00 | 0.00 | 25 | 1013.1 |
| 20260508011621 | 75 | 27 | 4.3 | 7.0 | 0.00 | 0.00 | 0.00 | 25 | 1013.0 |
| 20260508011129 | 75 | 27 | 2.6 | 3.5 | 0.00 | 0.00 | 0.00 | 25 | 1013.1 |
| 20260508010634 | 75 | 27 | 2.6 | 4.3 | 0.00 | 0.00 | 0.00 | 25 | 1013.1 |
| 20260508010138 | 76 | 27 | 1.7 | 4.3 | 0.00 | 0.00 | 0.00 | 25 | 1013.1 |
| 20260508005622 | 75 | 27 | 2.6 | 4.3 | 0.00 | 0.00 | 0.00 | 25 | 1013.1 |
| 20260508005127 | 75 | 27 | 0.0 | 5.2 | 0.00 | 0.00 | 0.00 | 25 | 1013.2 |
| 20260508004631 | 75 | 27 | 1.7 | 5.2 | 0.00 | 0.00 | 0.00 | 25 | 1013.1 |
| 20260508004135 | 76 | 27 | 1.7 | 5.2 | 0.00 | 0.00 | 0.00 | 24 | 1013.1 |
| 20260508003620 | 76 | 27 | 3.5 | 8.7 | 0.00 | 0.00 | 0.00 | 25 | 1013.0 |
| 20260508003124 | 75 | 27 | 4.3 | 8.7 | 0.00 | 0.00 | 0.00 | 25 | 1013.0 |
| 20260508002629 | 76 | 27 | 1.7 | 4.3 | 0.00 | 0.00 | 0.00 | 25 | 1013.1 |
| 20260508002133 | 75 | 27 | 0.0 | 7.0 | 0.00 | 0.00 | 0.00 | 24 | 1013.3 |
| 20260508001641 | 75 | 27 | 2.6 | 7.0 | 0.00 | 0.00 | 0.00 | 24 | 1013.3 |
| 20260508001124 | 76 | 27 | 2.6 | 4.3 | 0.00 | 0.00 | 0.00 | 24 | 1013.4 |
| 20260508000629 | 76 | 27 | 2.6 | 4.3 | 0.00 | 0.00 | 0.00 | 24 | 1013.5 |
| 20260508000133 | 76 | 27 | 0.0 | 3.5 | 0.00 | 0.00 | 0.00 | 25 | 1013.5 |
| 20260507235638 | 76 | 27 | 1.7 | 3.5 | 0.00 | 0.00 | 0.00 | 24 | 1013.5 |
| 20260507235142 | 77 | 27 | 0.9 | 3.5 | 0.00 | 0.00 | 0.00 | 24 | 1013.6 |
| 20260507234625 | 76 | 27 | 1.7 | 3.5 | 0.00 | 0.00 | 0.00 | 25 | 1013.6 |
| 20260507234130 | 76 | 27 | 1.7 | 3.5 | 0.00 | 0.00 | 0.00 | 25 | 1013.9 |
| 20260507233634 | 75 | 27 | 2.6 | 7.0 | 0.00 | 0.00 | 0.00 | 25 | 1013.9 |
| 20260507233138 | 75 | 27 | 4.3 | 7.0 | 0.00 | 0.00 | 0.00 | 25 | 1013.9 |
| 20260507232643 | 74 | 27 | 3.5 | 6.1 | 0.00 | 0.00 | 0.00 | 26 | 1014.0 |
| 20260507232126 | 74 | 27 | 2.6 | 7.8 | 0.00 | 0.00 | 0.00 | 25 | 1014.0 |
| 20260507231631 | 75 | 27 | 3.5 | 7.8 | 0.00 | 0.00 | 0.00 | 25 | 1014.1 |
| 20260507231139 | 75 | 27 | 2.6 | 6.1 | 0.00 | 0.00 | 0.00 | 25 | 1014.1 |
| 20260507230643 | 75 | 27 | 0.9 | 5.2 | 0.00 | 0.00 | 0.00 | 25 | 1014.2 |
| 20260507230126 | 74 | 27 | 3.5 | 6.1 | 0.00 | 0.00 | 0.00 | 26 | 1014.3 |
| 20260507225652 | 74 | 27 | 3.5 | 7.8 | 0.00 | 0.00 | 0.00 | 26 | 1014.4 |
| 20260507225154 | 74 | 27 | 2.6 | 7.8 | 0.00 | 0.00 | 0.00 | 26 | 1014.4 |
| 20260507224638 | 74 | 27 | 4.3 | 7.0 | 0.00 | 0.00 | 0.00 | 26 | 1014.6 |
| 20260507224122 | 73 | 27 | 1.7 | 5.2 | 0.00 | 0.00 | 0.00 | 26 | 1014.7 |
| 20260507223626 | 73 | 27 | 2.6 | 5.2 | 0.00 | 0.00 | 0.00 | 26 | 1014.7 |
| 20260507223130 | 72 | 27 | 1.7 | 7.0 | 0.00 | 0.00 | 0.00 | 26 | 1014.8 |
| 20260507222635 | 72 | 27 | 2.6 | 8.7 | 0.00 | 0.00 | 0.00 | 26 | 1014.9 |
| 20260507222138 | 72 | 27 | 5.2 | 8.7 | 0.00 | 0.00 | 0.00 | 27 | 1015.0 |
| 20260507221623 | 72 | 27 | 6.1 | 10.4 | 0.00 | 0.00 | 0.00 | 26 | 1015.0 |
| 20260507221127 | 73 | 27 | 7.8 | 11.3 | 0.00 | 0.00 | 0.00 | 26 | 1015.0 |
| 20260507220636 | 73 | 27 | 7.8 | 11.3 | 0.00 | 0.00 | 0.00 | 26 | 1015.1 |
| 20260507220140 | 73 | 27 | 7.8 | 10.4 | 0.00 | 0.00 | 0.00 | 27 | 1015.1 |
| 20260507215625 | 73 | 27 | 5.2 | 8.7 | 0.00 | 0.00 | 0.00 | 26 | 1015.1 |
| 20260507215128 | 73 | 27 | 4.3 | 9.6 | 0.00 | 0.00 | 0.00 | 25 | 1015.1 |
| 20260507214633 | 73 | 27 | 6.1 | 13.0 | 0.00 | 0.00 | 0.00 | 26 | 1015.2 |
| 20260507214137 | 74 | 27 | 7.0 | 13.0 | 0.00 | 0.00 | 0.00 | 25 | 1015.2 |